Location: Unspecified
(0.0000°N, 0.0000°E)
Time: 23:45:31
(UTC+00:00)

Tiangong 2 - Pass Details

Date: 28 March 2017
Orbit: 389 x 395 km, 42.8° (Epoch: 16 August)

Event Time Altitude Azimuth Distance (km) Brightness Sun altitude
Rises 19:07:55 0° 230° (SW) 2,280 5.7 -15.7°
Reaches altitude 10° 19:10:02 10° 234° (SW) 1,420 4.7 -16.2°
Maximum altitude 19:13:11 58° 314° (NW) 456 1.6 -17.0°
Enters shadow 19:14:43 26° 25° (NNE) 798 2.4 -17.4°
